Вернуться в каталог

SL-16 DEB

LostLEO
NORAD 39901·DEBRIS·🇷🇺 Russia

Запущен Mar 26, 1993 с Baikonur Cosmodrome

Loading…

Ближайшие Пролёты (ближайшие 24 часа)

TLE

УстаревшееSource: Space-Track

Эпоха: Feb 2, 2023, 12:01 UTC

1 39901U 93016CB  23033.50095179  .00005783  00000-0  26328-2 0  9994
2 39901  70.9465 220.6880 0135499  34.7351 326.2526 14.17302667867751

Отслеживайте SL-16 DEB в реальном времени с AllMySat

Download on the App Store